Regional Weather Roundup
Issued by NWS

Home | Current Version | Previous Version | Text Only | Print | Product List | Glossary On
Versions: 1 2 3 4 5 6 7 8 9 10 11 12 13 14 15 16 17 18 19 20 21 22 23 24 25 26 27 28 29 30 31 32 33 34 35 36 37 38 39 40 41 42 43 44 45 46 47 48 49 50
000
ASUS43 KLSX 220007
RWRMO

WEATHER SUMMARY FOR MISSOURI
NATIONAL WEATHER SERVICE SPRINGFIELD MO
700 PM CDT THU AUG 21 2014

NOTE: "FAIR" INDICATES FEW OR NO CLOUDS BELOW 12,000 FEET WITH NO
       SIGNIFICANT WEATHER AND/OR OBSTRUCTIONS TO VISIBILITY.
       CURRENT SKY AND/OR WEATHER CONDITIONS ARE NOT AVAILABLE FOR
       CHILLICOTHE AND FARMINGTON.

MOZ001>031-035>038-043-044-053-054-220100-
...NORTHERN AND WESTERN MISSOURI...

CITY           SKY/WX    TMP DP  RH WIND       PRES   REMARKS
KANSAS CTY INT MOSUNNY   91  73  55 S13       29.85S HX  99
6HR MIN TEMP:  88; 6HR MAX TEMP:  94;

KANSAS C DTWN  SUNNY     94  71  47 S15G25    29.83S HX 101
6HR MIN TEMP:  92; 6HR MAX TEMP:  97;

LEE`S SUMMIT   SUNNY     91  71  51 S10G20    29.87S HX  97
6HR MIN TEMP:  89; 6HR MAX TEMP:  94;

ST JOSEPH      MOSUNNY   89  77  67 SE7       29.82S HX 101
6HR MIN TEMP:  87; 6HR MAX TEMP:  93;

CHILLICOTHE      N/A     89  77  67 SE6       29.86F HX 101
6HR MIN TEMP:  87; 6HR MAX TEMP:  90;

KIRKSVILLE     MOSUNNY   86  77  74 S6        29.90F HX  97
6HR MIN TEMP:  86; 6HR MAX TEMP:  91;


$$
MOZ066>068-077>081-088>096-101>105-220100-
...SOUTHWEST MISSOURI...

CITY           SKY/WX    TMP DP  RH WIND       PRES   REMARKS
SPRINGFIELD    SUNNY     93  64  38 S13       29.95F HX  94
6HR MIN TEMP:  93; 6HR MAX TEMP:  98;

JOPLIN         SUNNY     91  67  44 S17       29.95R HX  94
6HR MIN TEMP:  91; 6HR MAX TEMP:  97;


$$
MOZ032>034-039>042-045>050-055>058-069>072-220100-
...CENTRAL MISSOURI...

CITY           SKY/WX    TMP DP  RH WIND       PRES   REMARKS
COLUMBIA       MOCLDY    89  76  65 S3        29.91F HX 100
6HR MIN TEMP:  89; 6HR MAX TEMP:  94;

JEFFERSON CITY PTCLDY    89  76  65 E5        29.88F HX 100
6HR MIN TEMP:  89; 6HR MAX TEMP:  95;

ROLLA          CLEAR     88  69  53 S7        29.93F HX  92
6HR MIN TEMP:  88; 6HR MAX TEMP:  94;

SEDALIA        PTSUNNY   91  74  57 S6        29.90F HX 100
6HR MIN TEMP:  90; 6HR MAX TEMP:  95;

WHITEMAN AFB   MOSUNNY   90  73  56 SW9       29.88F HX  98
OSAGE BEACH    PTCLDY    91  68  46 S3        29.91F HX  95

$$
MOZ051-052-059>065-220100-
...EAST CENTRAL MISSOURI...

CITY           SKY/WX    TMP DP  RH WIND       PRES   REMARKS
ST LOUIS INTL  MOCLDY    93  71  48 SW7       29.92F HX 100
6HR MIN TEMP:  92; 6HR MAX TEMP:  96;

SPIRIT OF STL  PTCLDY    89  77  67 CALM      29.89F HX 101
6HR MIN TEMP:  89; 6HR MAX TEMP:  94;

ST CHARLES     PTCLDY    88  75  65 SW5       29.89F HX  97
6HR MIN TEMP:  88; 6HR MAX TEMP:  94;


$$
MOZ072>076-082>087-097>100-106>115-220100-
...SOUTH CENTRAL AND SOUTHEAST MISSOURI...

CITY           SKY/WX    TMP DP  RH WIND       PRES   REMARKS
CAPE GIRARDEAU MOCLDY    86  76  71 S12       29.96F HX  96
6HR MIN TEMP:  86; 6HR MAX TEMP:  90;

FARMINGTON     PTCLDY    90  75  62 S9        29.97F HX 100
6HR MIN TEMP:  90; 6HR MAX TEMP:  95;

POPLAR BLUFF   MOCLDY    88  72  58 S7        29.96S HX  94
6HR MIN TEMP:  88; 6HR MAX TEMP:  93;

WEST PLAINS    CLEAR     89  66  46 S7        30.00F HX  91
6HR MIN TEMP:  89; 6HR MAX TEMP:  93;


$$


USA.gov is the U.S. government's official web portal to all federal, state and local government web resources and services.